Location: Marse
(42.1502°N, 110.9866°W)
Time: 03:36:52
(UTC+00:00)

ISS - Visible Passes

Search period start: 27 January 2022 00:00
Search period end: 06 February 2022 00:00
Orbit: 413 x 422 km, 51.6° (Epoch: 26 January)

Date Brightness Start Highest point End Pass type
(mag) Time Alt. Az. Time Alt. Az. Time Alt. Az.
27 Jan -1.8 01:00:34 10° WNW 01:03:01 19° NNW 01:05:29 10° NE visible
27 Jan -1.1 02:38:23 10° NW 02:39:14 14° NNW 02:39:14 14° NNW visible
28 Jan -1.7 01:50:14 10° NW 01:52:24 16° N 01:53:09 15° NNE visible
29 Jan -1.6 01:01:55 10° NW 01:04:05 16° N 01:06:15 10° NE visible
29 Jan -1.3 02:38:56 10° NW 02:40:01 16° NNW 02:40:01 16° NNW visible
30 Jan -2.1 01:50:54 10° NW 01:53:26 19° NNE 01:53:59 19° NNE visible
31 Jan -1.8 01:02:48 10° NW 01:05:07 17° N 01:07:25 10° NE visible
31 Jan -1.9 02:39:18 10° NW 02:40:56 24° NNW 02:40:56 24° NNW visible
01 Feb -2.7 01:51:17 10° NW 01:54:17 30° NNE 01:55:02 27° NE visible
01 Feb -0.2 03:27:56 10° WNW 03:27:59 10° WNW 03:27:59 10° WNW visible
02 Feb -2.3 01:03:15 10° NW 01:06:01 23° NNE 01:08:45 10° ENE visible
02 Feb -2.8 02:39:43 10° WNW 02:42:11 45° WNW 02:42:11 45° WNW visible
03 Feb -3.8 01:51:36 10° NW 01:54:55 64° NNE 01:56:31 27° ESE visible
03 Feb -0.3 03:29:13 10° W 03:29:29 11° W 03:29:29 11° W visible
04 Feb -1.9 02:40:29 10° WNW 02:43:21 26° SW 02:44:00 25° SSW visible
05 Feb -2.8 01:52:05 10° WNW 01:55:17 46° SW 01:58:29 10° SE visible
